Regional Weather Roundup
Issued by NWS Cleveland, OH

Home | Current Version | Previous Version | Graphics & Text | Print | Product List | Glossary On
Versions: 1 2 3 4 5 6 7 8 9 10 11 12 13 14 15 16 17 18 19 20 21 22 23 24 25 26 27 28 29 30 31 32 33 34 35 36 37 38 39 40 41 42 43 44 45 46 47 48 49 50
000
ASUS41 KCLE 060702
RWRCLE
OHIO REGIONAL WEATHER ROUNDUP
NATIONAL WEATHER SERVICE CLEVELAND, OH
200 AM EST FRI MAR 06 2015

NOTE: "FAIR" INDICATES FEW OR NO CLOUDS BELOW 12,000 FEET WITH NO
SIGNIFICANT WEATHER AND/OR OBSTRUCTIONS TO VISIBILITY.

OHZ001>008-015>018-024>027-034-035-043-044-060800-
   NORTHWEST OHIO

CITY           SKY/WX    TMP DP  RH WIND       PRES   REMARKS
DEFIANCE       PTCLDY     4   1  88 SW3       30.53R
FINDLAY        FAIR       5  -1  76 SW3       30.50S
TOLEDO EXPRESS PTCLDY     4  -1  80 SW5       30.51S WCI  -5
TOLEDO EXEC    PTCLDY     7  -2  66 SW6       30.52S WCI  -3
LIMA           PTCLDY     8   3  80 W5        30.50S WCI   0
$$

OHZ009>014-019>023-028>033-038-089-060800-
   NORTHEAST OHIO

CITY           SKY/WX    TMP DP  RH WIND       PRES   REMARKS
CLE-HOPKINS    PTCLDY     4  -2  76 SW5       30.53R WCI  -5
CLE-LAKEFRONT  PTCLDY    10   2  69 S3        30.52R
CUY CO. ARPT   NOT AVBL
LORAIN-ELYRIA  PTCLDY     1  -3  83 SW5       30.51R WCI  -9
ASHTABULA      PTCLDY    -9 -16  71 CALM      30.50R
AKRON-CANTON   PTCLDY     5  -3  69 CALM      30.47S
WOOSTER        PTCLDY    -6  -9  86 CALM      30.49R
MANSFIELD      MOCLDY     3   0  87 S5        30.47R WCI  -6
YOUNGSTOWN     PTCLDY    -1  -5  82 CALM      30.47R
$$

OHZ042-051>053-060>062-070>072-077>081-060800-
  SOUTHWEST OHIO

CITY           SKY/WX    TMP DP  RH WIND       PRES   REMARKS
CINC-COVINGTON PTCLDY     8   3  80 CALM      30.53S
CINC-LUNKEN    PTCLDY     6   4  91 N3        30.59R
HAMILTON       PTCLDY     4   0  83 CALM      30.57R
DAYTON         PTCLDY    11   5  77 CALM      30.52R
WRIGHT-PAT AFB PTCLDY     9   5  86 CALM      30.53R
DAYTON GENERAL PTCLDY    10   3  73 CALM      30.51S
WILMINGTON     PTCLDY     1  -3  83 CALM      30.51R
$$

OHZ036-037-039>041-045>050-054>059-063>069-073>076-082>088-060800-
  CENTRAL AND SOUTHEAST OHIO

CITY           SKY/WX    TMP DP  RH WIND       PRES   REMARKS
COLUMBUS       PTCLDY     5   1  83 CALM      30.53R
OSU AIRPORT    PTCLDY     8   4  83 CALM      30.51S
BOLTON FIELD   PTCLDY   N/A N/A N/A CALM      30.52S
RICKENBACK AFB NOT AVBL
NEWARK         PTCLDY     0  -4  83 CALM      30.52R
MARION         FAIR       2  -4  76 S3        30.50S
LANCASTER      PTCLDY    -1  -5  82 CALM      30.53R FOG
ZANESVILLE     PTCLDY     2  -2  83 S3        30.52S
NEW PHILLY     PTCLDY     5   0  79 CALM      30.52S
$$


USA.gov is the U.S. government's official web portal to all federal, state and local government web resources and services.